This demonstration page uses our WeatherBlox Daily Observations layout. Learn more.

Left ArrowRight Arrow

Hourly Observations for April 21, 2021

Temp ( °F °C ) Dew Point ( °F °C ) Humidity (%) Winds ( mph kmh ) Pressure ( in mb ) Visibility ( mi km ) Precip ( " mm )
12:53 am 00:53 Clear 53 11.7 43 6.1 69 69 NNE 6 9 29.80 1009 10 16 0.00 0.00
1:53 am 01:53 Clear 60 15.6 39 3.9 46 46 N 8 13 29.80 1009 10 16 0.00 0.00
2:53 am 02:53 Clear 63 17.2 29 -1.7 28 28 N 13 20 29.80 1009 10 16 0.00 0.00
3:53 am 03:53 Clear 63 17.2 29 -1.7 28 28 N 7 11 29.81 1009 10 16 0.00 0.00
4:53 am 04:53 Clear 63 17.2 27 -2.8 26 26 N 15 24 29.81 1010 10 16 0.00 0.00
5:53 am 05:53 Clear 61 16.1 27 -2.8 27 27 N 10 17 29.82 1010 10 16 0.00 0.00
6:53 am 06:53 Sunny 62 16.7 25 -3.9 24 24 N 13 20 29.83 1010 10 16 0.00 0.00
7:53 am 07:53 Sunny 64 17.8 26 -3.3 24 24 N 17 28 29.84 1011 10 16 0.00 0.00
8:53 am 08:53 Sunny 67 19.4 26 -3.3 21 21 N 17 28 29.84 1011 10 16 0.00 0.00
9:53 am 09:53 Sunny 70 21.1 25 -3.9 18 18 N 30 48 29.82 1010 10 16 0.00 0.00
10:53 am 10:53 Sunny 72 22.2 25 -3.9 17 17 NNE 25 41 29.83 1010 10 16 0.00 0.00
11:53 am 11:53 Sunny 75 23.9 25 -3.9 15 15 NNE 26 43 29.81 1009 10 16 0.00 0.00
12:53 pm 12:53 Sunny 79 26.1 27 -2.8 15 15 NNE 16 26 29.79 1009 10 16 0.00 0.00
1:53 pm 13:53 Sunny 81 27.2 25 -3.9 13 13 NE 20 31 29.77 1008 10 16 0.00 0.00
2:53 pm 14:53 Sunny 82 27.8 23 -5 11 11 N 20 31 29.75 1007 10 16 0.00 0.00
3:53 pm 15:53 Sunny 83 28.3 23 -5 11 11 N 17 28 29.72 1007 10 16 0.00 0.00
4:29 pm 16:29 Sunny 84 28.9 24 -4.4 11 11 NNE 13 20 29.70 1006 10 16 0.00 0.00
4:53 pm 16:53 Sunny 83 28.3 25 -3.9 12 12 NNW 8 13 29.71 1006 10 16 0.00 0.00
5:53 pm 17:53 Sunny 83 28.3 26 -3.3 12 12 NNW 8 13 29.70 1006 10 16 0.00 0.00
6:53 pm 18:53 Sunny 81 27.2 27 -2.8 14 14 NW 7 11 29.69 1006 10 16 0.00 0.00
7:53 pm 19:53 Sunny 78 25.6 28 -2.2 16 16 NNW 6 9 29.70 1006 10 16 0.00 0.00
8:53 pm 20:53 Clear 73 22.8 29 -1.7 19 19 NNW 6 9 29.72 1006 10 16 0.00 0.00
9:53 pm 21:53 Clear 66 18.9 32 0 28 28 ENE 5 7 29.75 1007 10 16 0.00 0.00
10:53 pm 22:53 Clear 63 17.2 32 0 31 31 Calm 29.77 1008 10 16 0.00 0.00
11:53 pm 23:53 Clear 62 16.7 33 0.6 34 34 N 5 7 29.78 1009 10 16 0.00 0.00

Powered by AerisWeather